Time,TemperatureF,DewpointF,PressureIn,WindDirection,WindDirectionDegrees,WindSpeedMPH,WindSpeedGustMPH,Humidity,HourlyPrecipIn,Conditions,Clouds,dailyrainin,SolarRadiationWatts/m^2,SoftwareType,DateUTC
2013-01-07 00:02:00,14.0,10.0,29.82,South,179,6.0,14.0,84,0.00,,,0.00,1.000000,,2013-01-07 06:02:00,
2013-01-07 00:32:00,13.0,9.0,29.80,SSW,193,5.0,13.0,84,0.00,,,0.00,1.000000,,2013-01-07 06:32:00,
2013-01-07 00:42:00,13.0,9.0,29.80,SSW,193,5.0,13.0,84,0.00,,,0.00,1.000000,,2013-01-07 06:42:00,
2013-01-07 00:52:00,13.0,9.0,29.80,SSW,193,5.0,13.0,84,0.00,,,0.00,1.000000,,2013-01-07 06:52:00,
2013-01-07 01:02:00,13.0,9.0,29.80,SSW,193,5.0,13.0,84,0.00,,,0.00,1.000000,,2013-01-07 07:02:00,
2013-01-07 01:33:00,13.0,9.0,29.76,South,183,5.0,11.0,84,0.00,,,0.00,1.000000,,2013-01-07 07:33:00,
2013-01-07 01:43:00,13.0,9.0,29.76,South,183,5.0,11.0,84,0.00,,,0.00,1.000000,,2013-01-07 07:43:00,
2013-01-07 01:53:00,13.0,9.0,29.76,South,183,5.0,11.0,84,0.00,,,0.00,1.000000,,2013-01-07 07:53:00,
2013-01-07 02:03:00,13.0,9.0,29.76,South,183,5.0,11.0,84,0.00,,,0.00,1.000000,,2013-01-07 08:03:00,
2013-01-07 02:33:00,13.0,9.0,29.75,South,190,4.0,10.0,84,0.00,,,0.00,1.000000,,2013-01-07 08:33:00,
2013-01-07 02:43:00,13.0,9.0,29.75,South,190,4.0,10.0,84,0.00,,,0.00,1.000000,,2013-01-07 08:43:00,
2013-01-07 02:53:00,13.0,9.0,29.75,South,190,4.0,10.0,84,0.00,,,0.00,1.000000,,2013-01-07 08:53:00,
2013-01-07 03:02:00,13.0,9.0,29.75,South,190,4.0,10.0,84,0.00,,,0.00,1.000000,,2013-01-07 09:02:00,
2013-01-07 03:32:00,14.0,10.0,29.74,SSW,196,6.0,10.0,84,0.00,,,0.00,1.000000,,2013-01-07 09:32:00,
2013-01-07 03:42:00,14.0,10.0,29.74,SSW,196,6.0,10.0,84,0.00,,,0.00,1.000000,,2013-01-07 09:42:00,
2013-01-07 03:52:00,14.0,10.0,29.74,SSW,196,6.0,10.0,84,0.00,,,0.00,1.000000,,2013-01-07 09:52:00,
2013-01-07 04:02:00,14.0,10.0,29.74,SSW,196,6.0,10.0,84,0.00,,,0.00,1.000000,,2013-01-07 10:02:00,
2013-01-07 04:33:00,15.0,11.0,29.74,SSW,208,4.0,9.0,85,0.00,,,0.00,1.000000,,2013-01-07 10:33:00,
2013-01-07 04:43:00,15.0,11.0,29.74,SSW,208,4.0,9.0,85,0.00,,,0.00,1.000000,,2013-01-07 10:43:00,
2013-01-07 04:52:00,15.0,11.0,29.74,SSW,208,4.0,9.0,85,0.00,,,0.00,1.000000,,2013-01-07 10:52:00,
2013-01-07 05:02:00,15.0,11.0,29.74,SSW,208,4.0,9.0,85,0.00,,,0.00,1.000000,,2013-01-07 11:02:00,
2013-01-07 05:33:00,18.0,14.0,29.71,South,184,4.0,7.0,85,0.00,,,0.00,1.000000,,2013-01-07 11:33:00,
2013-01-07 05:43:00,18.0,14.0,29.71,South,184,4.0,7.0,85,0.00,,,0.00,1.000000,,2013-01-07 11:43:00,
2013-01-07 05:53:00,18.0,14.0,29.71,South,184,4.0,7.0,85,0.00,,,0.00,1.000000,,2013-01-07 11:53:00,
2013-01-07 06:03:00,18.0,14.0,29.71,South,184,4.0,7.0,85,0.00,,,0.00,1.000000,,2013-01-07 12:03:00,
2013-01-07 06:33:00,20.0,16.0,29.72,SW,224,3.0,7.0,84,0.00,,,-99.99,1.000000,,2013-01-07 12:33:00,
2013-01-07 06:43:00,20.0,16.0,29.72,SW,224,3.0,7.0,84,0.00,,,-99.99,1.000000,,2013-01-07 12:43:00,
2013-01-07 06:53:00,20.0,16.0,29.72,SW,224,3.0,7.0,84,0.00,,,-99.99,1.000000,,2013-01-07 12:53:00,
2013-01-07 07:02:00,20.0,16.0,29.72,SW,224,3.0,7.0,84,0.00,,,-99.99,1.000000,,2013-01-07 13:02:00,
2013-01-07 07:33:00,21.0,16.0,29.73,SW,217,4.0,12.0,81,0.00,,,0.00,0.000000,,2013-01-07 13:33:00,
2013-01-07 07:43:00,21.0,16.0,29.73,SW,217,4.0,12.0,81,0.00,,,0.00,0.000000,,2013-01-07 13:43:00,
2013-01-07 07:53:00,21.0,16.0,29.73,SW,217,4.0,12.0,81,0.00,,,0.00,0.000000,,2013-01-07 13:53:00,
2013-01-07 08:03:00,21.0,16.0,29.73,SW,217,4.0,12.0,81,0.00,,,0.00,0.000000,,2013-01-07 14:03:00,
2013-01-07 08:33:00,24.0,18.0,29.74,WSW,245,6.0,12.0,79,0.00,,,0.00,1.000000,,2013-01-07 14:33:00,
2013-01-07 08:43:00,24.0,18.0,29.74,WSW,245,6.0,12.0,79,0.00,,,0.00,1.000000,,2013-01-07 14:43:00,
2013-01-07 08:53:00,24.0,18.0,29.74,WSW,245,6.0,12.0,79,0.00,,,0.00,1.000000,,2013-01-07 14:53:00,
2013-01-07 09:03:00,24.0,18.0,29.74,WSW,245,6.0,12.0,79,0.00,,,0.00,1.000000,,2013-01-07 15:03:00,
2013-01-07 09:33:00,26.0,20.0,29.75,WSW,254,7.0,13.0,77,0.00,,,0.00,13.000000,,2013-01-07 15:33:00,
2013-01-07 09:43:00,26.0,20.0,29.75,WSW,254,7.0,13.0,77,0.00,,,0.00,13.000000,,2013-01-07 15:43:00,
2013-01-07 09:53:00,26.0,20.0,29.75,WSW,254,7.0,13.0,77,0.00,,,0.00,13.000000,,2013-01-07 15:53:00,
2013-01-07 10:02:00,26.0,20.0,29.75,WSW,254,7.0,13.0,77,0.00,,,0.00,13.000000,,2013-01-07 16:02:00,
2013-01-07 10:33:00,32.0,22.0,29.78,WSW,255,6.0,14.0,66,0.00,,,0.00,150.000000,,2013-01-07 16:33:00,
2013-01-07 10:43:00,32.0,22.0,29.78,WSW,255,6.0,14.0,66,0.00,,,0.00,150.000000,,2013-01-07 16:43:00,
2013-01-07 10:53:00,32.0,22.0,29.78,WSW,255,6.0,14.0,66,0.00,,,0.00,150.000000,,2013-01-07 16:53:00,
2013-01-07 11:02:00,32.0,22.0,29.78,WSW,255,6.0,14.0,66,0.00,,,0.00,150.000000,,2013-01-07 17:02:00,
2013-01-07 11:33:00,36.0,23.0,29.79,WSW,248,7.0,14.0,58,0.01,,,0.01,256.000000,,2013-01-07 17:33:00,
2013-01-07 11:43:00,36.0,23.0,29.79,WSW,248,7.0,14.0,58,0.01,,,0.01,256.000000,,2013-01-07 17:43:00,
2013-01-07 11:53:00,36.0,23.0,29.79,WSW,248,7.0,14.0,58,0.01,,,0.01,256.000000,,2013-01-07 17:53:00,
2013-01-07 12:03:00,36.0,23.0,29.79,WSW,248,7.0,14.0,58,0.01,,,0.01,256.000000,,2013-01-07 18:03:00,
2013-01-07 12:33:00,36.0,22.0,29.78,West,272,8.0,18.0,57,0.02,,,0.03,312.000000,,2013-01-07 18:33:00,
2013-01-07 12:43:00,36.0,22.0,29.78,West,272,8.0,18.0,57,0.02,,,0.03,312.000000,,2013-01-07 18:43:00,
2013-01-07 12:53:00,36.0,22.0,29.78,West,272,8.0,18.0,57,0.02,,,0.03,312.000000,,2013-01-07 18:53:00,
2013-01-07 13:03:00,36.0,22.0,29.78,West,272,8.0,18.0,57,0.02,,,0.03,312.000000,,2013-01-07 19:03:00,
2013-01-07 13:33:00,37.0,21.0,29.77,West,260,8.0,18.0,52,0.01,,,0.04,236.000000,,2013-01-07 19:33:00,
2013-01-07 13:43:00,37.0,21.0,29.77,West,260,8.0,18.0,52,0.01,,,0.04,236.000000,,2013-01-07 19:43:00,
2013-01-07 13:53:00,37.0,21.0,29.77,West,260,8.0,18.0,52,0.01,,,0.04,236.000000,,2013-01-07 19:53:00,
2013-01-07 14:03:00,37.0,21.0,29.77,West,260,8.0,18.0,52,0.01,,,0.04,236.000000,,2013-01-07 20:03:00,
2013-01-07 14:33:00,37.0,21.0,29.79,West,280,9.0,27.0,52,0.02,,,0.06,329.000000,,2013-01-07 20:33:00,
2013-01-07 14:43:00,37.0,21.0,29.79,West,280,9.0,27.0,52,0.02,,,0.06,329.000000,,2013-01-07 20:43:00,
2013-01-07 14:53:00,37.0,21.0,29.79,West,280,9.0,27.0,52,0.02,,,0.06,329.000000,,2013-01-07 20:53:00,
2013-01-07 15:03:00,37.0,21.0,29.79,West,280,9.0,27.0,52,0.02,,,0.06,329.000000,,2013-01-07 21:03:00,
2013-01-07 15:33:00,36.0,21.0,29.81,West,274,7.0,18.0,55,0.00,,,0.06,255.000000,,2013-01-07 21:33:00,
2013-01-07 15:43:00,36.0,21.0,29.81,West,274,7.0,18.0,55,0.00,,,0.06,255.000000,,2013-01-07 21:43:00,
2013-01-07 15:53:00,36.0,21.0,29.81,West,274,7.0,18.0,55,0.00,,,0.06,255.000000,,2013-01-07 21:53:00,
2013-01-07 16:02:00,36.0,21.0,29.81,West,274,7.0,18.0,55,0.00,,,0.06,255.000000,,2013-01-07 22:02:00,
2013-01-07 16:33:00,33.0,21.0,29.82,West,264,6.0,15.0,61,0.00,,,0.06,112.000000,,2013-01-07 22:33:00,
2013-01-07 16:43:00,33.0,21.0,29.82,West,264,6.0,15.0,61,0.00,,,0.06,112.000000,,2013-01-07 22:43:00,
2013-01-07 16:53:00,33.0,21.0,29.82,West,264,6.0,15.0,61,0.00,,,0.06,112.000000,,2013-01-07 22:53:00,
2013-01-07 17:02:00,33.0,21.0,29.82,West,264,6.0,15.0,61,0.00,,,0.06,112.000000,,2013-01-07 23:02:00,
2013-01-07 17:33:00,30.0,21.0,29.84,WSW,253,4.0,12.0,69,0.00,,,0.06,11.000000,,2013-01-07 23:33:00,
2013-01-07 17:43:00,30.0,21.0,29.84,WSW,253,4.0,12.0,69,0.00,,,0.06,11.000000,,2013-01-07 23:43:00,
2013-01-07 17:53:00,30.0,21.0,29.84,WSW,253,4.0,12.0,69,0.00,,,0.06,11.000000,,2013-01-07 23:53:00,
2013-01-07 18:02:00,30.0,21.0,29.84,WSW,253,4.0,12.0,69,0.00,,,0.06,11.000000,,2013-01-08 00:02:00,
2013-01-07 18:33:00,28.0,20.0,29.86,WSW,242,4.0,10.0,72,0.00,,,0.06,1.000000,,2013-01-08 00:33:00,
2013-01-07 18:43:00,28.0,20.0,29.86,WSW,242,4.0,10.0,72,0.00,,,0.06,1.000000,,2013-01-08 00:43:00,
2013-01-07 18:53:00,28.0,20.0,29.86,WSW,242,4.0,10.0,72,0.00,,,0.06,1.000000,,2013-01-08 00:53:00,
2013-01-07 19:03:00,28.0,20.0,29.86,WSW,242,4.0,10.0,72,0.00,,,0.06,1.000000,,2013-01-08 01:03:00,
2013-01-07 19:33:00,26.0,19.0,29.87,WSW,252,4.0,11.0,75,0.00,,,0.06,1.000000,,2013-01-08 01:33:00,
2013-01-07 19:42:00,26.0,19.0,29.87,WSW,252,4.0,11.0,75,0.00,,,0.06,1.000000,,2013-01-08 01:42:00,
2013-01-07 19:52:00,26.0,19.0,29.87,WSW,252,4.0,11.0,75,0.00,,,0.06,1.000000,,2013-01-08 01:52:00,
2013-01-07 20:02:00,26.0,19.0,29.87,WSW,252,4.0,11.0,75,0.00,,,0.06,1.000000,,2013-01-08 02:02:00,
2013-01-07 20:33:00,25.0,19.0,29.87,WSW,246,4.0,9.0,76,0.00,,,0.06,1.000000,,2013-01-08 02:33:00,
2013-01-07 20:43:00,25.0,19.0,29.87,WSW,246,4.0,9.0,76,0.00,,,0.06,1.000000,,2013-01-08 02:43:00,
2013-01-07 20:53:00,25.0,19.0,29.87,WSW,246,4.0,9.0,76,0.00,,,0.06,1.000000,,2013-01-08 02:53:00,
2013-01-07 21:03:00,25.0,19.0,29.87,WSW,246,4.0,9.0,76,0.00,,,0.06,1.000000,,2013-01-08 03:03:00,
2013-01-07 21:33:00,24.0,19.0,29.90,West,280,3.0,8.0,80,0.00,,,0.06,1.000000,,2013-01-08 03:33:00,
2013-01-07 21:43:00,24.0,19.0,29.90,West,280,3.0,8.0,80,0.00,,,0.06,1.000000,,2013-01-08 03:43:00,
2013-01-07 21:53:00,24.0,19.0,29.90,West,280,3.0,8.0,80,0.00,,,0.06,1.000000,,2013-01-08 03:53:00,
2013-01-07 22:02:00,24.0,19.0,29.90,West,280,3.0,8.0,80,0.00,,,0.06,1.000000,,2013-01-08 04:02:00,
2013-01-07 22:32:00,22.0,17.0,29.90,WSW,256,2.0,7.0,82,0.00,,,0.06,1.000000,,2013-01-08 04:32:00,
2013-01-07 22:43:00,22.0,17.0,29.90,WSW,256,2.0,7.0,82,0.00,,,0.06,1.000000,,2013-01-08 04:43:00,
2013-01-07 22:52:00,22.0,17.0,29.90,WSW,256,2.0,7.0,82,0.00,,,0.06,1.000000,,2013-01-08 04:52:00,
2013-01-07 23:03:00,22.0,17.0,29.90,WSW,256,2.0,7.0,82,0.00,,,0.06,1.000000,,2013-01-08 05:03:00,
2013-01-07 23:33:00,17.0,15.0,29.91,East,84,1.0,2.0,90,0.00,,,0.06,1.000000,,2013-01-08 05:33:00,
2013-01-07 23:43:00,17.0,15.0,29.91,East,84,1.0,2.0,90,0.00,,,0.06,1.000000,,2013-01-08 05:43:00,
2013-01-07 23:53:00,17.0,15.0,29.91,East,84,1.0,2.0,90,0.00,,,0.06,1.000000,,2013-01-08 05:53:00,